This is the latest recevied weather packets stored in our database for station/object N0ZRD-10. If no packets are shown the sender has not sent any weather packets the latest 10 day(s).
| Time | Temp. | Humidity | Pressure | Rain* | Wind** | Luminosity | Snow |
|---|---|---|---|---|---|---|---|
| 1777480910 | 5° C | 42% | - | 0 mm | - | - | - |
| 1777480309 | 6.11° C | 38% | - | 0 mm | - | - | - |
| 1777479706 | 5° C | 41% | - | 0 mm | - | - | - |
| 1777479106 | 5° C | 40% | - | 0 mm | - | - | - |
| 1777478504 | 5° C | 38% | - | 0 mm | - | - | - |
| 1777477903 | 5° C | 41% | - | 0 mm | - | - | - |
| 1777477302 | 4.44° C | 36% | - | 0 mm | - | - | - |
| 1777476702 | 4.44° C | 40% | - | 0 mm | - | - | - |
| 1777476101 | 4.44° C | 41% | - | 0 mm | - | - | - |
| 1777475500 | 3.89° C | 46% | - | 0 mm | - | - | - |
| 1777474899 | 3.33° C | 44% | - | 0 mm | - | - | - |
| 1777474298 | 4.44° C | 45% | - | 0 mm | - | - | - |
| 1777473697 | 3.33° C | 45% | - | 0 mm | - | - | - |
| 1777473095 | 3.33° C | 45% | - | 0 mm | - | - | - |
| 1777472492 | 3.33° C | 40% | - | 0 mm | - | - | - |
| 1777471890 | 3.33° C | 41% | - | 0 mm | - | - | - |
| 1777471290 | 2.78° C | 47% | - | 0 mm | - | - | - |
| 1777470688 | 2.78° C | 49% | - | 0 mm | - | - | - |
| 1777470087 | 2.22° C | 53% | - | 0 mm | - | - | - |
| 1777469487 | 2.22° C | 55% | - | 0 mm | - | - | - |
| 1777468884 | 2.22° C | 55% | - | 0 mm | - | - | - |
| 1777468284 | 2.22° C | 58% | - | 0 mm | - | - | - |
| 1777467682 | 1.67° C | 58% | - | 0 mm | - | - | - |
| 1777466479 | 1.11° C | 62% | - | 0 mm | - | - | - |
| 1777465878 | 1.11° C | 64% | - | 0 mm | - | - | - |
* Rain latest hour (hover to see other rain measurements)
** Current wind speed in m/s (hover to see current wind gust speed)